Andalusia, AL

1:06 AM CST on February 13, 2016 (GMT -0600)
Andalusia

Weather History for K79J - January, 2014

Change the Weather History Date:

Monday, January 6, 2014

  Actual Average (KCEW) Record (KCEW)
Temperature  
Mean Temperature 36 °F -  
Max Temperature 48 °F 65 °F 77 °F (2005)
Min Temperature 21 °F 40 °F 18 °F (1999)
Degree Days  
Heating Degree Days 30    
Moisture  
Dew Point 20 °F    
Average Humidity 59    
Maximum Humidity 87    
Minimum Humidity 27    
Precipitation  
Precipitation 0.00 in - - ()
Sea Level Pressure  
Sea Level Pressure 30.25 in    
Wind  
Wind Speed 19 mph (North)    
Max Wind Speed 25 mph    
Max Gust Speed 33 mph    
Visibility 10 miles    
Events Rain    
Averages and records for this station are not official NWS values.
T = Trace of Precipitation, MM = Missing Value Source: NWS Daily Summary

Daily Weather History Graph

Daily Weather History Graph

Search for Another Location

Airport or City:

Trip Planner

Search our weather history database for the weather conditions in past years. The results will help you decide how hot, cold, wet, or windy it might be!

Date:

Astronomy

Jan. 06, 2014 Rise Set
Actual Time 6:45 AM CST 4:57 PM CST
Civil Twilight 6:18 AM CST 5:24 PM CST
Nautical Twilight 5:48 AM CST 5:54 PM CST
Astronomical Twilight 5:19 AM CST 6:23 PM CST
Moon 10:24 AM CST (1/6) 11:04 PM CST (1/6)
Length of Visible Light 11h 05m
Length of Day
10h 12m
Waxing Crescent, 35% of the Moon is Illuminated
Jan 6
Waxing Crescent
Jan 7
First Quarter
Jan 15
Full
Jan 23
Last Quarter
Jan 30
New

Hourly Weather History & Observations

Time (CST) Temp. Windchill Dew Point Humidity Pressure Visibility Wind Dir Wind Speed Gust Speed Precip Events Conditions
12:03 AM 48.2 °F - 44.6 °F 87% 29.95 in 6.0 mi NNW 19.6 mph 28.8 mph 0.00 in Rain Light Rain
12:14 AM 48.2 °F - 44.6 °F 87% 29.95 in 10.0 mi North 15.0 mph 27.6 mph 0.00 in   Overcast
12:36 AM 46.4 °F 38.3 °F 42.8 °F 87% 29.97 in 7.0 mi North 23.0 mph 27.6 mph 0.00 in Rain Light Rain
12:56 AM 45.0 °F 37.1 °F 39.9 °F 82% 29.99 in 10.0 mi North 19.6 mph 32.2 mph 0.00 in Rain Light Rain
1:22 AM 42.8 °F 33.5 °F 39.2 °F 87% 30.01 in 10.0 mi North 23.0 mph 28.8 mph 0.00 in   Overcast
1:41 AM 41.0 °F 32.5 °F 37.4 °F 87% 30.02 in 10.0 mi North 17.3 mph 27.6 mph 0.00 in   Overcast
1:54 AM 37.4 °F 26.4 °F 33.8 °F 87% 30.04 in 10.0 mi North 23.0 mph 31.1 mph 0.00 in   Overcast
1:56 AM 37.9 °F 26.6 °F 33.1 °F 83% 30.04 in 10.0 mi NNW 25.3 mph 33.4 mph 0.00 in   Overcast
2:14 AM 35.6 °F 24.5 °F 32.0 °F 87% 30.06 in 10.0 mi NNW 20.7 mph 32.2 mph N/A   Overcast
2:56 AM 34.0 °F 22.1 °F 28.9 °F 82% 30.09 in 10.0 mi NNW 21.9 mph 29.9 mph N/A   Overcast
3:17 AM 33.8 °F 23.5 °F 28.4 °F 81% 30.10 in 10.0 mi North 16.1 mph - N/A   Overcast
3:56 AM 34.0 °F 22.7 °F 27.0 °F 75% 30.12 in 10.0 mi North 19.6 mph 31.1 mph N/A   Overcast
4:56 AM 32.0 °F 20.8 °F 25.0 °F 75% 30.15 in 10.0 mi North 17.3 mph 26.5 mph N/A   Overcast
5:56 AM 32.0 °F 19.2 °F 23.0 °F 69% 30.20 in 10.0 mi North 23.0 mph 31.1 mph N/A   Overcast
6:56 AM 30.9 °F 18.7 °F 21.0 °F 67% 30.24 in 10.0 mi North 19.6 mph 27.6 mph N/A   Overcast
7:56 AM 30.0 °F 17.5 °F 19.0 °F 64% 30.29 in 10.0 mi North 19.6 mph 27.6 mph N/A   Mostly Cloudy
8:15 AM 30.2 °F 19.8 °F 19.4 °F 64% 30.30 in 10.0 mi North 13.8 mph 25.3 mph N/A   Scattered Clouds
8:56 AM 33.1 °F 21.9 °F 19.0 °F 56% 30.31 in 10.0 mi North 18.4 mph - N/A   Clear
9:56 AM 35.1 °F 26.9 °F 19.9 °F 54% 30.34 in 10.0 mi North 11.5 mph 23.0 mph N/A   Partly Cloudy
10:56 AM 36.0 °F 26.0 °F 19.9 °F 52% 30.33 in 10.0 mi North 17.3 mph 25.3 mph N/A   Partly Cloudy
11:56 AM 37.9 °F 28.9 °F 17.1 °F 43% 30.33 in 10.0 mi NNW 16.1 mph 25.3 mph N/A   Clear
12:56 PM 37.0 °F 27.0 °F 12.9 °F 37% 30.32 in 10.0 mi North 18.4 mph 23.0 mph N/A   Clear
1:56 PM 37.0 °F 27.4 °F 8.1 °F 30% 30.34 in 10.0 mi NNW 17.3 mph 23.0 mph N/A   Clear
2:56 PM 36.0 °F 25.6 °F 5.0 °F 27% 30.36 in 10.0 mi North 18.4 mph 25.3 mph N/A   Clear
3:56 PM 33.1 °F 21.9 °F 3.0 °F 28% 30.38 in 10.0 mi NNW 18.4 mph 23.0 mph N/A   Clear
4:56 PM 30.0 °F 18.7 °F 1.9 °F 30% 30.41 in 10.0 mi North 16.1 mph - N/A   Clear
5:56 PM 28.0 °F 15.7 °F -0.0 °F 30% 30.44 in 10.0 mi North 17.3 mph 25.3 mph N/A   Clear
6:56 PM 27.0 °F 14.7 °F -2.0 °F 29% 30.48 in 10.0 mi NNW 16.1 mph 26.5 mph N/A   Clear
7:56 PM 26.1 °F 15.6 °F -0.0 °F 32% 30.52 in 10.0 mi North 11.5 mph 28.8 mph N/A   Clear
8:56 PM 25.0 °F 11.7 °F -0.9 °F 33% 30.54 in 10.0 mi North 17.3 mph 23.0 mph N/A   Clear
9:56 PM 24.1 °F 12.0 °F -0.0 °F 35% 30.53 in 10.0 mi North 13.8 mph 19.6 mph N/A   Clear
10:56 PM 23.0 °F 9.6 °F 1.0 °F 39% 30.53 in 10.0 mi North 16.1 mph - N/A   Clear
11:56 PM 21.9 °F 8.7 °F 1.9 °F 42% 30.55 in 10.0 mi North 15.0 mph 20.7 mph N/A   Clear